When you browse on this site, cookies collect data to enhance your experience and personalize the content and advertising you see.
Visit our Privacy Policy to learn more. By continuing to use the site, you agree to this use of cookies and data.
  • în România
  • Lista ţărilor
  • Pe 7 zile
  • Temperatura apei
  • Hartă satelitară
  • Meteo pe hartă
  • Widget-uri
  • user-avatar
    Intrare

    Meteo pe oră la Nikopol

    Astăzi, 17 Ianuarie, Joi

    Timp Temperatura Precipitaţii Vânt Presiune Umiditate
    00:00 -12°C° 0 mm 2 m/s 733 mmHg 95%
    01:00 -12°C° 0 mm 2 m/s 733 mmHg 96%
    02:00 -10°C° 0 mm 1 m/s 733 mmHg 97%
    03:00 -12°C° 0 mm 2 m/s 733 mmHg 97%
    04:00 -12°C° 0 mm 3 m/s 732 mmHg 96%
    05:00 -12°C° 0 mm 4 m/s 732 mmHg 95%
    06:00 -11°C° 0.3 mm 4 m/s 731 mmHg 94%
    07:00 -10°C° 0.3 mm 5 m/s 730 mmHg 93%
    08:00 -8°C° 0 mm 5 m/s 729 mmHg 92%
    09:00 -8°C° 0.4 mm 6 m/s 729 mmHg 91%
    10:00 -5°C° 0.4 mm 6 m/s 729 mmHg 90%
    11:00 -3°C° 0.4 mm 6 m/s 728 mmHg 90%
    12:00 -3°C° 0.2 mm 6 m/s 728 mmHg 89%
    13:00 -3°C° 0.2 mm 6 m/s 727 mmHg 89%
    14:00 -2°C° 0.2 mm 6 m/s 727 mmHg 89%
    15:00 -2°C° 0.6 mm 6 m/s 726 mmHg 89%
    16:00 -2°C° 0.6 mm 6 m/s 726 mmHg 90%
    17:00 -2°C° 0.6 mm 6 m/s 725 mmHg 90%
    18:00 -2°C° 0.5 mm 6 m/s 725 mmHg 89%
    19:00 -2°C° 0.5 mm 6 m/s 725 mmHg 89%
    20:00 -2°C° 0.5 mm 6 m/s 725 mmHg 88%
    21:00 -2°C° 0.1 mm 6 m/s 726 mmHg 89%
    22:00 -2°C° 0.1 mm 6 m/s 726 mmHg 89%
    23:00 -2°C° 0.1 mm 6 m/s 727 mmHg 89%

    Mâine, 18 Ianuarie, Vineri

    Timp Temperatura Precipitaţii Vânt Presiune Umiditate
    00:00 -2°C° 0.2 mm 6 m/s 727 mmHg 89%
    01:00 -1°C° 0.2 mm 5 m/s 728 mmHg 90%
    02:00 -1°C° 0.2 mm 5 m/s 728 mmHg 90%
    03:00 -1°C° 0.3 mm 5 m/s 729 mmHg 90%
    04:00 -1°C° 0.3 mm 5 m/s 729 mmHg 90%
    05:00 -1°C° 0.3 mm 5 m/s 730 mmHg 89%
    06:00 -1°C° 0.3 mm 5 m/s 730 mmHg 90%
    07:00 -1°C° 0.3 mm 4 m/s 731 mmHg 91%
    08:00 -2°C° 0.3 mm 4 m/s 731 mmHg 92%
    09:00 -2°C° 0.3 mm 4 m/s 731 mmHg 93%
    10:00 -1°C° 0.3 mm 3 m/s 732 mmHg 94%
    11:00 -1°C° 0.3 mm 3 m/s 732 mmHg 94%
    12:00 -1°C° 0.5 mm 2 m/s 732 mmHg 95%
    13:00 -2°C° 0.5 mm 2 m/s 731 mmHg 96%
    14:00 0°C° 0.5 mm 1 m/s 731 mmHg 97%
    15:00 -2°C° 1.6 mm 2 m/s 731 mmHg 96%
    16:00 -3°C° 1.6 mm 2 m/s 731 mmHg 96%
    17:00 -4°C° 1.6 mm 3 m/s 730 mmHg 96%
    18:00 -5°C° 1 mm 3 m/s 731 mmHg 95%
    19:00 -8°C° 1 mm 4 m/s 731 mmHg 94%
    20:00 -9°C° 1 mm 4 m/s 731 mmHg 92%
    21:00 -10°C° 0.1 mm 4 m/s 732 mmHg 92%
    22:00 -9°C° 0.1 mm 3 m/s 733 mmHg 92%
    23:00 -9°C° 0.1 mm 3 m/s 734 mmHg 92%

    Poimâine, 19 Ianuarie, Sâmbătă

    Timp Temperatura Precipitaţii Vânt Presiune Umiditate
    00:00 -10°C° 0 mm 3 m/s 735 mmHg 93%
    01:00 -12°C° 0 mm 3 m/s 736 mmHg 94%
    02:00 -12°C° 0 mm 3 m/s 737 mmHg 95%
    03:00 -12°C° 0 mm 3 m/s 737 mmHg 95%
    04:00 -10°C° 0 mm 3 m/s 737 mmHg 95%
    05:00 -10°C° 0 mm 3 m/s 737 mmHg 95%
    06:00 -9°C° 0.1 mm 3 m/s 738 mmHg 94%
    07:00 -9°C° 0.1 mm 3 m/s 738 mmHg 94%
    08:00 -9°C° 0.1 mm 3 m/s 738 mmHg 93%
    09:00 -8°C° 0 mm 3 m/s 739 mmHg 92%
    10:00 -9°C° 0 mm 4 m/s 739 mmHg 91%
    11:00 -8°C° 0 mm 4 m/s 739 mmHg 90%
    12:00 -8°C° 0.1 mm 4 m/s 739 mmHg 90%
    13:00 -8°C° 0.1 mm 4 m/s 739 mmHg 91%
    14:00 -8°C° 0.1 mm 4 m/s 740 mmHg 91%
    15:00 -8°C° 0.1 mm 4 m/s 740 mmHg 91%
    16:00 -8°C° 0.1 mm 4 m/s 740 mmHg 91%
    17:00 -7°C° 0.1 mm 3 m/s 741 mmHg 92%
    18:00 -7°C° 0.1 mm 3 m/s 741 mmHg 92%
    19:00 -7°C° 0.1 mm 3 m/s 741 mmHg 92%
    20:00 -8°C° 0.1 mm 4 m/s 741 mmHg 92%
    21:00 -7°C° 0 mm 3 m/s 742 mmHg 92%
    22:00 -7°C° 0 mm 3 m/s 742 mmHg 93%
    23:00 -8°C° 0 mm 3 m/s 742 mmHg 93%

    20 Ianuarie, Duminică

    Timp Temperatura Precipitaţii Vânt Presiune Umiditate
    00:00 -8°C° 0 mm 3 m/s 742 mmHg 94%
    01:00 -8°C° 0 mm 3 m/s 742 mmHg 94%
    02:00 -8°C° 0 mm 3 m/s 742 mmHg 95%
    03:00 -8°C° 0 mm 3 m/s 742 mmHg 94%
    04:00 -7°C° 0 mm 3 m/s 742 mmHg 94%
    05:00 -8°C° 0 mm 4 m/s 742 mmHg 93%
    06:00 -7°C° 0.1 mm 4 m/s 741 mmHg 92%
    07:00 -7°C° 0.1 mm 4 m/s 741 mmHg 91%
    08:00 -7°C° 0.1 mm 5 m/s 741 mmHg 90%
    09:00 -6°C° 0.1 mm 5 m/s 740 mmHg 89%
    10:00 -6°C° 0.1 mm 5 m/s 740 mmHg 88%
    11:00 -5°C° 0.1 mm 6 m/s 739 mmHg 87%
    12:00 -5°C° 0.3 mm 6 m/s 739 mmHg 88%
    13:00 -5°C° 0.3 mm 6 m/s 739 mmHg 88%
    14:00 -5°C° 0.3 mm 6 m/s 739 mmHg 88%
    15:00 -6°C° 0.5 mm 5 m/s 739 mmHg 90%
    16:00 -5°C° 0.5 mm 4 m/s 739 mmHg 92%
    17:00 -5°C° 0.5 mm 4 m/s 739 mmHg 93%
    18:00 -6°C° 0.3 mm 3 m/s 739 mmHg 94%
    19:00 -6°C° 0.3 mm 2 m/s 739 mmHg 94%
    20:00 -7°C° 0.3 mm 2 m/s 739 mmHg 94%
    21:00 -8°C° 0 mm 2 m/s 739 mmHg 95%
    22:00 -9°C° 0 mm 2 m/s 740 mmHg 96%
    23:00 -10°C° 0 mm 2 m/s 740 mmHg 96%

    21 Ianuarie, Luni

    Timp Temperatura Precipitaţii Vânt Presiune Umiditate
    00:00 -10°C° 0 mm 1 m/s 740 mmHg 97%
    01:00 -10°C° 0 mm 1 m/s 740 mmHg 97%
    02:00 -11°C° 0 mm 1 m/s 740 mmHg 97%
    03:00 -13°C° 0 mm 2 m/s 740 mmHg 97%
    04:00 -13°C° 0 mm 2 m/s 740 mmHg 97%
    05:00 -13°C° 0 mm 2 m/s 740 mmHg 96%
    06:00 -13°C° 0 mm 3 m/s 740 mmHg 95%
    07:00 -13°C° 0 mm 3 m/s 740 mmHg 94%
    08:00 -13°C° 0 mm 3 m/s 741 mmHg 92%
    09:00 -13°C° 0 mm 3 m/s 741 mmHg 92%
    10:00 -13°C° 0 mm 3 m/s 741 mmHg 92%
    11:00 -13°C° 0 mm 3 m/s 742 mmHg 91%
    12:00 -13°C° 0 mm 3 m/s 742 mmHg 91%
    13:00 -13°C° 0 mm 3 m/s 742 mmHg 91%
    14:00 -13°C° 0 mm 3 m/s 742 mmHg 91%
    15:00 -13°C° 0 mm 3 m/s 742 mmHg 93%
    16:00 -14°C° 0 mm 3 m/s 742 mmHg 94%
    17:00 -14°C° 0 mm 2 m/s 742 mmHg 95%
    18:00 -14°C° 0 mm 2 m/s 742 mmHg 96%
    19:00 -14°C° 0 mm 2 m/s 742 mmHg 96%
    20:00 -14°C° 0 mm 2 m/s 742 mmHg 97%
    21:00 -13°C° 0 mm 2 m/s 742 mmHg 97%
    22:00 -13°C° 0 mm 2 m/s 742 mmHg 96%
    23:00 -12°C° 0 mm 2 m/s 742 mmHg 96%

    22 Ianuarie, Marţi

    Timp Temperatura Precipitaţii Vânt Presiune Umiditate
    00:00 -12°C° 0 mm 2 m/s 742 mmHg 96%
    01:00 -12°C° 0 mm 2 m/s 742 mmHg 96%
    02:00 -12°C° 0 mm 2 m/s 742 mmHg 97%
    03:00 -12°C° 0.1 mm 2 m/s 742 mmHg 97%
    04:00 -12°C° 0.1 mm 2 m/s 742 mmHg 96%
    05:00 -13°C° 0.1 mm 2 m/s 742 mmHg 96%
    06:00 -13°C° 0 mm 2 m/s 742 mmHg 97%
    07:00 -13°C° 0 mm 2 m/s 742 mmHg 97%
    08:00 -14°C° 0 mm 2 m/s 743 mmHg 97%
    09:00 -13°C° 0 mm 2 m/s 743 mmHg 96%
    10:00 -12°C° 0 mm 2 m/s 743 mmHg 95%
    11:00 -13°C° 0 mm 3 m/s 744 mmHg 94%
    12:00 -12°C° 0 mm 3 m/s 744 mmHg 93%
    13:00 -12°C° 0 mm 3 m/s 744 mmHg 92%
    14:00 -12°C° 0 mm 3 m/s 744 mmHg 91%
    15:00 -13°C° 0 mm 3 m/s 744 mmHg 92%
    16:00 -12°C° 0 mm 2 m/s 744 mmHg 94%
    17:00 -13°C° 0 mm 2 m/s 745 mmHg 95%
    18:00 -14°C° 0 mm 2 m/s 745 mmHg 96%
    19:00 -16°C° 0 mm 2 m/s 745 mmHg 97%
    20:00 -17°C° 0 mm 2 m/s 745 mmHg 99%
    21:00 -15°C° 0 mm 1 m/s 745 mmHg 99%
    22:00 -16°C° 0 mm 1 m/s 746 mmHg 99%
    23:00 -16°C° 0 mm 1 m/s 746 mmHg 98%
    Arată mai mult